Monster Beverage ROE 2006-2018 | MNST

Current and historical return on equity (ROE) values for Monster Beverage (MNST) over the last 10 years. Return on equity can be defined as the amount of net income returned as a percentage of shareholders equity. Return on equity measures a corporation's profitability by revealing how much profit a company generates with the money shareholders have invested. Monster Beverage ROE for the three months ending September 30, 2018 was 25.47%.
Monster Beverage ROE - Return on Equity Historical Data
Date TTM Net Income Shareholder's Equity Return on Equity
2018-09-30 $0.96B $3.89B 25.02%
2018-06-30 $0.91B $3.61B 23.93%
2018-03-31 $0.86B $3.88B 22.44%
2017-12-31 $0.82B $3.90B 21.94%
2017-09-30 $0.79B $3.77B 22.02%
2017-06-30 $0.77B $3.78B 21.83%
2017-03-31 $0.73B $3.53B 21.62%
2016-12-31 $0.71B $3.33B 19.13%
2016-09-30 $0.68B $3.40B 16.57%
2016-06-30 $0.66B $3.19B 15.00%
2016-03-31 $0.71B $4.99B 14.64%
2015-12-31 $0.55B $4.81B 13.86%
2015-09-30 $0.53B $4.66B 17.07%
2015-06-30 $0.48B $4.86B 20.82%
2015-03-31 $0.39B $1.47B 27.88%
2014-12-31 $0.48B $1.52B 36.73%
2014-09-30 $0.43B $1.39B 36.65%
2014-06-30 $0.40B $1.26B 37.49%
2014-03-31 $0.37B $1.10B 37.84%
2013-12-31 $0.34B $0.99B 38.53%
2013-09-30 $0.33B $0.96B 41.76%
2013-06-30 $0.32B $0.86B 41.93%
2013-03-31 $0.33B $0.70B 38.21%
2012-12-31 $0.34B $0.64B 35.89%
2012-09-30 $0.34B $0.89B 32.69%
2012-06-30 $0.33B $1.19B 31.97%
2012-03-31 $0.31B $1.07B 31.25%
2011-12-31 $0.29B $0.98B 30.79%
2011-09-30 $0.27B $0.93B 30.29%
2011-06-30 $0.25B $0.95B 29.94%
2011-03-31 $0.23B $0.85B 29.98%
2010-12-31 $0.21B $0.83B 29.20%
2010-09-30 $0.22B $0.76B 32.47%
2010-06-30 $0.21B $0.68B 33.66%
2010-03-31 $0.20B $0.64B 34.31%
2009-12-31 $0.21B $0.59B 38.33%
2009-09-30 $0.13B $0.56B 26.18%
2009-06-30 $0.13B $0.55B 25.79%
2009-03-31 $0.12B $0.49B 25.58%
2008-12-31 $0.11B $0.44B 23.24%
2008-09-30 $0.18B $0.51B 38.16%
2008-06-30 $0.17B $0.46B 39.98%
2008-03-31 $0.16B $0.45B 40.91%
2007-12-31 $0.15B $0.42B 44.48%
2007-09-30 $0.13B $0.37B 44.09%
2007-06-30 $0.11B $0.30B 43.53%
2007-03-31 $0.10B $0.25B 44.09%
2006-12-31 $0.10B $0.23B 50.13%
2006-09-30 $0.09B $0.20B 55.11%
2006-06-30 $0.09B $0.20B 60.10%
2006-03-31 $0.07B $0.15B 63.66%
2005-12-31 $0.06B $0.13B 64.75%
Sector Industry Market Cap Revenue
Consumer Staples Beverages - Soft Drinks $31.762B $3.369B
Based in Corona, California, Monster Beverage Corporation is a holding company and conducts no operating business except through its consolidated subsidiaries. The Company's subsidiaries market and distribute energy drinks, including Monster Energy(R) energy drinks, Monster Energy Extra Strength Nitrous Technology(R) energy drinks, Java Monster(R) non-carbonated coffee + energy drinks, M3(R) Monster Energy(R) Super Concentrate energy drinks, Monster Rehab(R) non-carbonated energy drinks with electrolytes, Muscle Monster(R) Energy Shakes, Ubermonster(R) energy drinks, NOS(R) energy drinks, Full Throttle(R) energy drinks, Burn(R) energy drinks, Samurai(R) energy drinks, Relentless(R) energy drinks, Mother(R) energy drinks, Power Play(R) energy drinks, BU(R) energy drinks, Nalu(R) energy drinks, BPM(R) energy drinks, Gladiator(R) energy drinks, and Ultra(R) energy drinks.
Stock Name Country Market Cap PE Ratio
Coca-Cola (KO) United States $209.968B 24.01
Pepsico (PEP) United States $165.153B 21.39
Keurig Dr Pepper (KDP) United States $36.741B 9.60
Fomento Economico MexicanoB De C.V (FMX) Mexico $30.250B 37.91
Coca-Cola European Partners (CCEP) United Kingdom $22.688B 17.54
Coca Cola FemsaB De C.V (KOF) Mexico $12.550B 19.91
National Beverage (FIZZ) United States $3.925B 23.51
Embotelladora Andina (AKO.B) Chile $3.624B 20.33
Embotelladora Andina (AKO.A) Chile $3.155B 17.70
Cott (COT) Canada $2.027B 98.13
Coca-Cola Bottling Consolidated (COKE) United States $2.019B 63.08
Primo Water (PRMW) United States $0.541B 56.12
New Age Beverage (NBEV) United States $0.438B 0.00
Alkaline Water (WTER) United States $0.159B 0.00
Youngevity (YGYI) United States $0.145B 0.00
Reeds (REED) United States $0.060B 0.00
DAVIDsTEA (DTEA) Canada $0.049B 0.00
SkyPeople Fruit Juice (FTFT) China $0.028B 0.00
Coffee Holding (JVA) United States $0.021B 21.94